OpenBCM V1.13 (Linux)

Packet Radio Mailbox

DB0FHN

[JN59NK Nuernberg]

 Login: GUEST





  
LU9DCE > KEP      02.05.19 19:34l 244 Lines 12042 Bytes #999 (0) @ WW
BID : 23308_LU9DCE
Read: DF7EAV DK3UZ GUEST
Subj: TLE 02 05
Path: DB0FHN<DB0BLO<DB0ERF<DB0RES<PI8CDR<GB7YEW<N3HYM<LU9DCE
Sent: 190502/1800Z 23308@LU9DCE.TOR.BA.ARG.SOAM LinBPQ6.0.18

            __    _  _  ___  ____   ___  ____    ____  ____  ____
           (  )  / )( \/ _ \(    \ / __)(  __)  (  _ \(  _ \/ ___)
           / (_/\) \/ (\__  )) D (( (__  ) _)    ) _ ( ) _ (\___ \
           \____/\____/(___/(____/ \___)(____)  (____/(____/(____/
               ESTACION DE PACKET RADIO - BUENOS AIRES (GF05OM)
                   BOLETINES INFORMATIVOS PROGRAMADOS (BIP)
              28.125 USB @ 300 BAUD --- HELLOCODELINUX@GMAIL.COM

+----------------------------------------------------------------------------+
OSCAR 7
1  7530U 74089B   19121.90491955 -.00000040 +00000-0 +32598-4 0  9995
2  7530 101.7396 090.0646 0012584 079.4112 345.4982 12.53637883034292
OSCAR 11 (UoSAT 2)
1 14781U 84021B   19121.93249913 +.00000070 +00000-0 +14716-4 0  9990
2 14781 097.6150 148.8988 0009945 113.0667 247.1597 14.83080009870685
OSCAR 19 (LUSAT)
1 20442U 90005G   19121.83747209 -.00000024  00000-0  77164-5 0  9997
2 20442  98.6452  63.9273 0010711 293.2558  66.7498 14.32923472529522
EYESAT A
1 22825U 93061C   19122.41230883 -.00000009  00000-0  14296-4 0  9998
2 22825  98.9012 109.9765 0009209 131.7084 228.4887 14.30057045335190
ITAMSAT
1 22826U 93061D   19121.93533707 +.00000001 +00000-0 +18353-4 0  9995
2 22826 098.8951 109.4863 0009837 123.1754 237.0372 14.30390355335078
RADIO ROSTO
1 23439U 94085A   19121.88931735 -.00000044 +00000-0 -46214-4 0  9996
2 23439 064.8160 193.4282 0147075 122.5119 239.0113 11.27567675002505
JAS 2
1 24278U 96046B   19121.93020634 -.00000054 +00000-0 -18105-4 0  9999
2 24278 098.5303 281.8349 0350379 004.0609 356.3247 13.53090688121090
TECHSAT 1B
1 25397U 98043D   19122.39068944 -.00000024  00000-0  87166-5 0  9998
2 25397  98.6856  63.1170 0001759 133.7890 226.3434 14.23664373 81148
ISS (ZARYA)
1 25544U 98067A   19122.53301443  .00001730  00000-0  35075-4 0  9993
2 25544  51.6419 228.1054 0000902 265.2456 210.9573 15.52617854168164
PCSAT
1 26931U 01043C   19121.46949968 -.00000029  00000-0  20615-4 0  9998
2 26931  67.0493 128.1166 0006157 279.5852  80.4553 14.30539956918079
SAUDISAT 1C
1 27607U 02058C   19122.37526120  .00000007  00000-0  21877-4 0  9994
2 27607  64.5547 194.2597 0082362 265.5448  93.6241 14.75540580880052
CUTE-1
1 27844U 03031E   19121.95264890 +.00000053 +00000-0 +43454-4 0  9991
2 27844 098.6854 130.8771 0010168 162.6452 197.5075 14.22173103821465
CUBESAT XI 4
1 27848U 03031J   19121.93120046 +.00000034 +00000-0 +35417-4 0  9996
2 27848 098.6932 131.3454 0009842 173.6588 186.4716 14.21768796821320
MOZHAYETS 4
1 27939U 03042A   19122.43229289  .00000084  00000-0  23718-4 0  9990
2 27939  98.0313 259.1902 0012242 212.2273 147.8198 14.66773364833610
CUBESAT XI 5
1 28895U 05043F   19122.33811287  .00000121  00000-0  31942-4 0  9999
2 28895  97.9515 266.7122 0017834 138.0109 222.2464 14.63654353720563
CUTE-1.7+APD II
1 32785U 08021C   19121.81608061 +.00000202 +00000-0 +27465-4 0  9992
2 32785 097.5496 123.7899 0014552 064.9110 295.3616 14.88287092596498
DELFI C3
1 32789U 08021G   19121.94042195 +.00001218 +00000-0 +85709-4 0  9993
2 32789 097.4692 173.0378 0010518 290.9035 069.1066 15.06838808599671
SEEDS
1 32791U 08021J   19121.84781237  .00000325  00000-0  38395-4 0  9999
2 32791  97.5291 129.7413 0014426  42.7245 317.5093 14.90787110596988
YUBELEINY
1 32953U 08025A   19122.23947567  .00000020  00000-0  75656-4 0  9990
2 32953  82.5049 174.2757 0018250 230.0510 129.8966 12.43089044496412
PRISM (HITOMI)
1 33493U 09002B   19121.72523090 +.00001025 +00000-0 +95475-4 0  9997
2 33493 098.1230 040.8609 0014816 348.7201 011.3685 14.96601346557965
KKS-1 (KISEKI)
1 33499U 09002H   19121.93143755 +.00000083 +00000-0 +20322-4 0  9994
2 33499 098.3535 319.1075 0009289 007.0431 353.0905 14.75428107551759
SWISSCUBE
1 35932U 09051B   19121.91325380 +.00000115 +00000-0 +36983-4 0  9992
2 35932 098.5829 286.5005 0006674 318.9873 041.0822 14.56268954509789
BEESAT
1 35933U 09051C   19121.91918595 +.00000101 +00000-0 +33765-4 0  9999
2 35933 098.5860 288.2417 0005143 336.6466 023.4497 14.56360189509859
ITUPSAT 1
1 35935U 09051E   19122.43055637  .00000073  00000-0  27910-4 0  9991
2 35935  98.5971 289.0092 0007355 327.9598  32.1150 14.55522308509763
XIWANG-1 (HOPE-1)
1 36122U 09072B   19121.70079416 -.00000058 +00000-0 -42834-4 0  9990
2 36122 100.0729 126.3369 0008309 096.5296 263.6745 13.16348941450565
TISAT 1
1 36799U 10035E   19121.90264185 +.00000458 +00000-0 +52362-4 0  9991
2 36799 098.1489 272.4894 0011139 239.1704 120.8418 14.91066289477448
JUGNU
1 37839U 11058B   19121.79006696 +.00000304 +00000-0 +19983-4 0  9993
2 37839 019.9611 265.2597 0018859 158.7187 348.2329 14.12648736390367
SRMSAT
1 37841U 11058D   19121.83453296  .00000312  00000-0  26461-4 0  9991
2 37841  19.9730 320.7740 0011729  31.2159  81.9928 14.10630355389924
M-CUBED/EXP-1 PRIME
1 37855U 11061F   19121.87697629 +.00000657 +00000-0 +41157-4 0  9995
2 37855 101.7214 352.9214 0173778 218.5099 140.3609 15.05301011409114
HORYU 2
1 38340U 12025D   19121.90883047 +.00000161 +00000-0 +31602-4 0  9995
2 38340 098.3340 159.0530 0010123 276.9436 083.0620 14.75698859363704
STRAND 1
1 39090U 13009E   19122.16574068  .00000053  00000-0  33612-4 0  9993
2 39090  98.4934 328.9099 0010346  72.4828 287.7488 14.35080689323573
SOMP
1 39134U 13015E   19122.38600375  .00001134  00000-0  61412-4 0  9994
2 39134  64.8626 173.6861 0026445 310.2866  49.5949 15.20031299333408
BEESAT 3
1 39135U 13015F   19121.56536650 +.00000711 +00000-0 +45253-4 0  9993
2 39135 064.8662 193.9744 0014016 322.1656 037.8484 15.17355394332554
BEESAT 2
1 39136U 13015G   19121.58449424  .00000752  00000-0  47981-4 0  9993
2 39136  64.8692 197.5858 0014961 312.3108  47.6749 15.16799907332875
CUBEBUG 1
1 39153U 13018D   19122.25218123  .00000158  00000-0  27562-4 0  9993
2 39153  97.9751 220.6530 0016729 357.3493   2.7627 14.80547313324793
ZACUBE
1 39417U 13066B   19121.94092438 +.00000179 +00000-0 +28826-4 0  9990
2 39417 097.5652 138.1205 0058737 189.0440 170.9721 14.81091424293977
TRITON 1
1 39427U 13066M   19122.41854183  .00000193  00000-0  39016-4 0  9996
2 39427  97.6726 102.7274 0112832 317.4755  41.7752 14.67818675291401
GOMX 1
1 39430U 13066Q   19122.30976712  .00000219  00000-0  48414-4 0  9992
2 39430  97.7419  81.9967 0152574  43.9946 317.3287 14.59229419289698
HUMSAT D
1 39433U 13066T   19121.86848052 +.00000422 +00000-0 +46435-4 0  9997
2 39433 097.5587 171.3155 0032480 100.1107 260.3779 14.92147363294767
CUBEBUG 2
1 39440U 13066AA  19122.22354108  .00000196  00000-0  34400-4 0  9997
2 39440  97.6021 123.4651 0078939 238.6090 120.7382 14.75831340292971
FUNCUBE 1
1 39444U 13066AE  19121.76521882  .00000248  00000-0  36814-4 0  9993
2 39444  97.5635 139.8523 0058029 183.6549 176.4249 14.81904685292835
UWE-3
1 39446U 13066AG  19121.97061972 +.00000188 +00000-0 +31730-4 0  9992
2 39446 097.5824 130.1904 0069145 214.7319 144.9369 14.78365086291627
SPROUT
1 39770U 14029E   19122.26866751  .00000707  00000-0  84560-4 0  9999
2 39770  97.8791 225.8843 0007680 239.8394 120.2060 14.87278464267782
UNISAT 6
1 40012U 14033C   19121.95212812 +.00000155 +00000-0 +30636-4 0  9995
2 40012 097.7647 350.6020 0056901 251.5509 107.9510 14.73956853261657
DUCHIFAT 1
1 40021U 14033M   19122.35309644  .00000344  00000-0  41008-4 0  9995
2 40021  97.9236  46.7934 0012182 200.4164 159.6568 14.90588879264493
QB50P1
1 40025U 14033R   19122.32162617  .00000291  00000-0  36971-4 0  9997
2 40025  97.9067  42.0813 0011569 209.9449 150.1108 14.88913655264275
CHUBUSAT 1
1 40300U 14070C   19122.18707664  .00000683  00000-0  32789-4 0  9993
2 40300  97.3277 197.5634 0018886 220.9932 191.3181 15.22016023248793
NUDT-PHONESAT
1 40900U 15049B   19122.39676971  .00001919  00000-0  85498-4 0  9993
2 40900  97.4393 132.2018 0012920 359.9297 107.4806 15.22586985200464
ZDPS 2A
1 40901U 15049C   19122.32987654  .00000964  00000-0  51147-4 0  9993
2 40901  97.4609 128.8409 0014280  15.4984  33.5625 15.17640494200051
ZDPS 2B
1 40902U 15049D   19122.35952498  .00000988  00000-0  52695-4 0  9990
2 40902  97.4548 126.4364 0014082  12.4634  94.3264 15.17423088200037
XW-2A
1 40903U 15049E   19122.39284786  .00001699  00000-0  42278-4 0  9999
2 40903  97.3437 164.8795 0012574 324.0445  92.4461 15.41661488202961
KAITUO 1A
1 40904U 15049F   19122.45908965  .00000441  00000-0  26843-4 0  9993
2 40904  97.4672 125.2789 0015470  18.1049 107.1077 15.15317274199848
OBJECT G
1 40905U 15049G   19122.44600852  .00000119  00000-0  10096-4 0  9992
2 40905  97.4705 122.8785 0016183  12.7025 145.2305 15.14246886199724
XW-2C
1 40906U 15049H   19122.40063159  .00000798  00000-0  45415-4 0  9998
2 40906  97.4679 125.2657 0015420  10.5648  99.1138 15.15610880199833
XW-2D
1 40907U 15049J   19122.38342979  .00000607  00000-0  35195-4 0  9999
2 40907  97.4655 124.9271 0014656   8.1999  98.2541 15.15791969199845
LILACSAT 2
1 40908U 15049K   19122.40056221  .00000596  00000-0  36589-4 0  9990
2 40908  97.4787 123.8691 0016683  12.3336  97.2952 15.13764415199658
XW-2F
1 40910U 15049M   19122.38935815  .00000978  00000-0  52491-4 0  9999
2 40910  97.4625 126.8236 0015175   2.1157 103.5789 15.17191202199845
XW-2B
1 40911U 15049N   19122.41385069  .00000735  00000-0  41962-4 0  9996
2 40911  97.4685 125.5922 0014487   8.9103  97.0429 15.15724318199745
KAITUO 1B
1 40912U 15049P   19122.23282914  .00000967  00000-0  48697-4 0  9991
2 40912  97.4515 130.2056 0014585 345.3769 143.3865 15.19487804200106
TIANWANG 1C (TW-1C)
1 40926U 15051B   19122.41839446  .00009675  00000-0  14726-3 0  9997
2 40926  97.1414 168.6719 0008735 173.5286 244.8272 15.54681881202811
